This demonstration page uses our WeatherBlox Daily Observations layout. Learn more.

Left ArrowRight Arrow

31.31129, -92.44514

Hourly Observations for October 24, 2015

Temp ( °F °C ) Dew Point ( °F °C ) Humidity (%) Winds ( mph kmh ) Pressure ( in mb ) Visibility ( mi km ) Precip ( " mm )
12:53 am 00:53 Cloudy 75 23.9 69 20.6 82 82 ESE 12 19 29.99 1016 10 16 0.00 0.00
1:53 am 01:53 Cloudy 74 23.3 70 21.1 88 88 SE 13 20 29.97 1015 10 16 0.00 0.00
2:53 am 02:53 Cloudy 74 23.3 69 20.6 85 85 SE 12 19 29.96 1015 10 16 0.00 0.00
3:53 am 03:53 Cloudy 74 23.3 69 20.6 85 85 SE 9 15 29.95 1014 10 16 0.00 0.00
4:53 am 04:53 Cloudy 73 22.8 68 20 84 84 ESE 10 17 29.95 1014 10 16 0.00 0.00
5:53 am 05:53 Cloudy 73 22.8 69 20.6 87 87 ESE 9 15 29.95 1014 10 16 0.00 0.00
6:46 am 06:46 Cloudy 73 22.8 69 20.6 87 87 ESE 9 15 29.94 1014 10 16 0.00 0.00
6:53 am 06:53 Cloudy 73 22.8 69 20.6 87 87 ESE 8 13 29.97 1015 10 16 0.00 0.00
7:03 am 07:03 Cloudy with Light Rain 73 22.8 69 20.6 87 87 ESE 8 13 29.97 1015 10 16 0.00 0.03
7:27 am 07:27 Cloudy 73 22.8 69 20.6 87 87 E 5 7 29.97 1015 10 16 0.00 0.03
7:53 am 07:53 Cloudy 73 22.8 69 20.6 87 87 E 5 7 29.97 1015 9 14 0.00 0.03
8:30 am 08:30 Cloudy with Nearby Thunderstorms 73 22.8 70 21.1 90 90 ENE 3 6 29.97 1015 9 14 0.00 0.03
8:53 am 08:53 Cloudy 72 22.2 70 21.1 94 94 ENE 3 6 29.99 1016 9 14 0.00 0.03
9:53 am 09:53 Cloudy 73 22.8 70 21.1 90 90 ENE 6 9 30.01 1016 8 13 0.00 0.00
10:34 am 10:34 Cloudy 74 23.3 70 21.1 88 88 E 7 11 30.00 1016 9 14 0.00 0.00
10:53 am 10:53 Cloudy 74 23.3 70 21.1 88 88 E 6 9 30.01 1016 9 14 0.00 0.00
11:53 am 11:53 Cloudy with Light Rain 76 24.4 70 21.1 82 82 E 8 13 29.99 1016 10 16 0.00 0.03
12:53 pm 12:53 Mostly Cloudy 78 25.6 70 21.1 76 76 E 8 13 29.97 1015 10 16 0.00 0.03
1:14 pm 13:14 Mostly Cloudy 79 26.1 70 21.1 74 74 E 6 9 29.94 1014 10 16 0.00 0.00
1:24 pm 13:24 Mostly Cloudy 79 26.1 70 21.1 74 74 ENE 6 9 29.94 1014 10 16 0.00 0.00
1:53 pm 13:53 Mostly Cloudy 79 26.1 70 21.1 74 74 NE 6 9 29.93 1014 10 16 0.00 0.00
2:25 pm 14:25 Mostly Cloudy with Light Rain 77 25 72 22.2 85 85 N 6 9 29.91 1013 7 11 0.02 0.51
2:41 pm 14:41 Cloudy with Light Rain 76 24.4 72 22.2 88 88 Calm 29.91 1013 6 10 0.03 0.76
2:53 pm 14:53 Cloudy with Rain 75 23.9 73 22.8 94 94 W 9 15 29.91 1013 2 3 0.06 1.52
3:02 pm 15:02 Cloudy with Heavy Rain 73 22.8 72 22.2 96 96 WNW 7 11 29.91 1013 1 2 0.09 2.29
3:19 pm 15:19 Cloudy with Rain 72 22.2 70 21.1 94 94 NW 6 9 29.91 1013 3 4 0.18 4.57
3:27 pm 15:27 Cloudy with Heavy Rain 71 21.7 69 20.6 94 94 WNW 9 15 29.91 1013 2 3 0.22 5.59
3:35 pm 15:35 Cloudy with Heavy Rain 70 21.1 69 20.6 97 97 WNW 6 9 29.91 1013 1 1 0.32 8.13
3:51 pm 15:51 Cloudy with Heavy Rain 70 21 70 21 100 100 W 8 13 29.91 1013 1 1 0.65 16.51
3:53 pm 15:53 Cloudy with Heavy Rain 70 21.1 69 20.6 97 97 W 9 15 29.92 1013 1 1 0.70 17.78
4:01 pm 16:01 Cloudy with Heavy Rain 70 21.1 69 20.6 97 97 Calm 29.94 1014 1 2 0.04 1.02
4:05 pm 16:05 Cloudy with Rain 70 21.1 69 20.6 97 97 VRB 5 7 29.94 1014 2 3 0.04 1.02
4:13 pm 16:13 Cloudy with Heavy Rain 70 21.1 69 20.6 97 97 NE 3 6 29.94 1014 1 1 0.22 5.59
4:28 pm 16:28 Cloudy with Heavy Rain 70 21.1 69 20.6 97 97 Calm 29.94 1014 0 0 0.56 14.22
4:35 pm 16:35 Cloudy with Heavy Rain 69 20.6 69 20.6 100 100 ESE 5 7 29.94 1014 1 2 0.62 15.75
4:53 pm 16:53 Cloudy with Heavy Rain 70 21.1 69 20.6 97 97 Calm 29.94 1014 2 3 0.72 18.29
5:11 pm 17:11 Cloudy with Heavy Rain 70 21.1 69 20.6 97 97 Calm 29.94 1014 2 3 0.07 1.78
5:22 pm 17:22 Cloudy with Rain 70 21.1 69 20.6 97 97 E 3 6 29.94 1014 4 6 0.09 2.29
5:53 pm 17:53 Cloudy with Rain 69 20.6 69 20.6 100 100 NE 3 6 29.93 1014 4 6 0.13 3.30
6:12 pm 18:12 Cloudy with Light Rain 69 20.6 68 20 96 96 ENE 3 6 29.94 1014 6 10 0.02 0.51
6:53 pm 18:53 Cloudy with Light Rain 69 20.6 68 20 96 96 NE 3 6 29.94 1014 8 13 0.04 1.02
7:17 pm 19:17 Cloudy with Light Rain 69 20.6 68 20 96 96 Calm 29.94 1014 6 10 0.01 0.25
7:53 pm 19:53 Mostly Cloudy with Light Rain 69 20.6 68 20 96 96 NE 3 6 29.96 1015 6 10 0.04 1.02
8:53 pm 20:53 Mostly Cloudy with Light Rain 69 20.6 68 20 96 96 ENE 5 7 29.96 1015 6 10 0.03 0.76
9:23 pm 21:23 Cloudy with Rain 69 20.6 68 20 96 96 NE 7 11 29.97 1015 4 6 0.06 1.52
9:33 pm 21:33 Cloudy with Rain 69 20.6 68 20 96 96 NE 5 7 29.97 1015 4 6 0.08 2.03
9:53 pm 21:53 Cloudy with Light Rain 69 20.6 69 20.6 100 100 NE 6 9 29.97 1015 7 11 0.10 2.54
10:13 pm 22:13 Cloudy with Light Rain 69 20.6 69 20.6 100 100 ENE 5 7 29.97 1015 10 16 0.00 0.03
10:51 pm 22:51 Cloudy 70 21 70 21 100 100 E 10 17 29.97 1015 10 16 0.02 0.51
10:53 pm 22:53 Cloudy with Light Rain 70 21.1 69 20.6 97 97 E 10 17 29.98 1015 10 16 0.02 0.51
11:02 pm 23:02 Cloudy with Light Rain 70 21.1 69 20.6 97 97 E 9 15 29.97 1015 10 16 0.00 0.03
11:11 pm 23:11 Mostly Cloudy with Light Rain 70 21.1 69 20.6 97 97 E 9 15 29.97 1015 10 16 0.00 0.03
11:17 pm 23:17 Mostly Cloudy with Light Rain 70 21.1 69 20.6 97 97 E 9 15 29.97 1015 10 16 0.00 0.03
11:23 pm 23:23 Mostly Cloudy with Light Rain 70 21.1 69 20.6 97 97 E 8 13 29.97 1015 10 16 0.00 0.03
11:36 pm 23:36 Mostly Cloudy with Light Rain 70 21.1 69 20.6 97 97 E 10 17 29.97 1015 10 16 0.00 0.03
11:42 pm 23:42 Mostly Cloudy with Light Rain 70 21.1 69 20.6 97 97 E 10 17 29.97 1015 9 14 0.01 0.25
11:53 pm 23:53 Cloudy with Light Rain 70 21.1 69 20.6 97 97 E 9 15 29.96 1015 6 10 0.02 0.51
11:57 pm 23:57 Cloudy with Rain 70 21.1 69 20.6 97 97 E 10 17 29.97 1015 6 10 0.00 0.03

Powered by AerisWeather